Change the Weather History Date:

Sunday, May 4, 2014

  Actual Average (KPAH) Record (KPAH)
Temperature  
Mean Temperature 68 °F 64 °F  
Max Temperature 87 °F 75 °F 89 °F (2012)
Min Temperature 48 °F 53 °F 34 °F (1954)
Degree Days  
Heating Degree Days 0 3  
Month to date heating degree days 15  
Since 1 July heating degree days 4079  
Cooling Degree Days 2 2  
Month to date cooling degree days 8  
Year to date cooling degree days 50  
Growing Degree Days 18 (Base 50)    
Moisture  
Dew Point 45 °F    
Average Humidity 49    
Maximum Humidity 99    
Minimum Humidity 17    
Precipitation  
Precipitation 0.00 in 0.18 in 1.29 in (1942)
Month to date precipitation 0.70  
Year to date precipitation 16.98  
Snow  
Snow 0.00 in 0.00 in - ()
Month to date snowfall 0.0  
Since 1 July snowfall 9.1  
Snow Depth -    
Sea Level Pressure  
Sea Level Pressure 29.93 in    
Wind  
Wind Speed 4 mph (SSW)    
Max Wind Speed 17 mph    
Max Gust Speed 24 mph    
T = Trace of Precipitation, MM = Missing Value Source: NWS Daily Summary

Daily Weather History Graph

Daily Weather History Graph

Search for Another Location

Airport or City:

Trip Planner

Search our weather history database for the weather conditions in past years. The results will help you decide how hot, cold, wet, or windy it might be!

Date:

Astronomy

May. 04, 2014 Rise Set
Actual Time 5:57 AM CDT 7:47 PM CDT
Civil Twilight 5:28 AM CDT 8:15 PM CDT
Nautical Twilight 4:54 AM CDT 8:49 PM CDT
Astronomical Twilight 4:18 AM CDT 9:26 PM CDT
Moon 10:21 AM CDT (5/4) No Moon Set
Length of Visible Light 14h 46m
Length of Day
13h 50m
Waxing Crescent, 28% of the Moon is Illuminated
May 4
Waxing Crescent
May 6
First Quarter
May 14
Full
May 21
Last Quarter
May 28
New

Hourly Weather History & Observations

Time (CDT) Temp. Dew Point Humidity Pressure Visibility Wind Dir Wind Speed Gust Speed Precip Events Conditions
12:15 AM 54.9 °F 48.6 °F 79% 29.96 in - Calm Calm - N/A   Clear
12:35 AM 55.0 °F 48.4 °F 78% 29.96 in - Calm Calm - N/A   Clear
12:55 AM 54.7 °F 47.8 °F 78% 29.95 in - Calm Calm - N/A   Clear
1:15 AM 53.6 °F 47.5 °F 80% 29.95 in - Calm Calm - N/A   Clear
1:35 AM 53.6 °F 47.7 °F 80% 29.95 in - Calm Calm - N/A   Clear
1:55 AM 52.7 °F 48.0 °F 84% 29.95 in - Calm Calm - N/A   Clear
2:15 AM 52.3 °F 48.4 °F 86% 29.94 in - Calm Calm - N/A   Unknown
2:35 AM 51.8 °F 49.1 °F 90% 29.94 in - Calm Calm - N/A   Unknown
2:55 AM 51.3 °F 48.7 °F 91% 29.94 in - Calm Calm - N/A   Unknown
3:15 AM 50.9 °F 48.4 °F 91% 29.94 in - Calm Calm - N/A   Unknown
3:35 AM 50.7 °F 48.7 °F 93% 29.95 in - Calm Calm - N/A   Unknown
3:55 AM 50.0 °F 48.4 °F 94% 29.95 in - Calm Calm - N/A   Unknown
4:15 AM 50.0 °F 48.6 °F 95% 29.95 in - Calm Calm - N/A   Unknown
4:35 AM 49.8 °F 48.6 °F 95% 29.95 in - Calm Calm - N/A   Unknown
4:55 AM 49.5 °F 48.6 °F 97% 29.96 in - Calm Calm - N/A   Unknown
5:15 AM 49.1 °F 48.2 °F 97% 29.95 in - Calm Calm - N/A   Unknown
5:35 AM 49.1 °F 48.4 °F 97% 29.96 in - Calm Calm - N/A   Unknown
5:55 AM 48.9 °F 48.2 °F 97% 29.97 in - Calm Calm - N/A   Unknown
6:15 AM 48.6 °F 47.8 °F 97% 29.98 in - Calm Calm - N/A   Unknown
6:35 AM 49.5 °F 49.1 °F 99% 29.98 in - Calm Calm - N/A   Unknown
6:55 AM 51.6 °F 50.9 °F 97% 29.98 in - Calm Calm - N/A   Unknown
7:15 AM 60.3 °F 49.3 °F 67% 29.98 in - SW 5.8 mph - N/A   Clear
7:35 AM 61.9 °F 48.4 °F 61% 29.99 in - SW 5.8 mph - N/A   Clear
7:55 AM 63.5 °F 48.7 °F 59% 29.99 in - SW 6.9 mph - N/A   Clear
8:15 AM 65.3 °F 48.2 °F 54% 30.00 in - SW 5.8 mph - N/A   Clear
8:35 AM 67.1 °F 48.2 °F 51% 30.00 in - SW 6.9 mph - N/A   Clear
8:55 AM 68.7 °F 48.4 °F 48% 30.00 in - SW 6.9 mph - N/A   Clear
9:15 AM 70.7 °F 48.6 °F 45% 30.00 in - SW 5.8 mph - N/A   Clear
9:35 AM 72.5 °F 46.9 °F 40% 30.00 in - WSW 8.1 mph - N/A   Clear
9:55 AM 74.5 °F 46.6 °F 37% 30.00 in - WSW 6.9 mph - N/A   Clear
10:15 AM 75.2 °F 45.3 °F 34% 30.00 in - WSW 6.9 mph - N/A   Clear
10:35 AM 75.7 °F 46.2 °F 35% 30.00 in - WSW 8.1 mph - N/A   Clear
10:55 AM 76.6 °F 45.3 °F 33% 30.00 in - WSW 8.1 mph - N/A   Clear
11:15 AM 77.4 °F 45.0 °F 32% 30.00 in - WSW 8.1 mph - N/A   Clear
11:35 AM 78.6 °F 44.6 °F 30% 30.00 in - WSW 9.2 mph - N/A   Clear
11:55 AM 79.3 °F 44.2 °F 29% 29.99 in - SW 6.9 mph - N/A   Clear
12:15 PM 80.2 °F 44.6 °F 28% 29.98 in - WSW 10.4 mph - N/A   Clear
12:35 PM 81.5 °F 42.8 °F 25% 29.98 in - WSW 8.1 mph - N/A   Clear
12:55 PM 82.2 °F 43.3 °F 25% 29.97 in - SW 5.8 mph - N/A   Clear
1:15 PM 82.8 °F 41.9 °F 24% 29.95 in - SW 11.5 mph - N/A   Clear
1:35 PM 83.7 °F 42.4 °F 23% 29.95 in - SW 9.2 mph - N/A   Clear
1:55 PM 83.5 °F 44.2 °F 25% 29.94 in - WSW 12.7 mph - N/A   Clear
2:15 PM 84.6 °F 42.6 °F 23% 29.93 in - WSW 13.8 mph 17.3 mph N/A   Clear
2:35 PM 84.7 °F 43.2 °F 23% 29.92 in - SW 8.1 mph - N/A   Clear
2:55 PM 85.6 °F 43.2 °F 22% 29.91 in - SW 10.4 mph - N/A   Clear
3:15 PM 86.4 °F 42.4 °F 21% 29.90 in - SSW 10.4 mph 17.3 mph N/A   Clear
3:35 PM 86.9 °F 40.1 °F 19% 29.89 in - SSW 9.2 mph 17.3 mph N/A   Clear
3:55 PM 86.7 °F 41.2 °F 20% 29.88 in - South 13.8 mph 20.7 mph N/A   Clear
4:15 PM 86.7 °F 39.7 °F 19% 29.88 in - South 17.3 mph - N/A   Clear
4:35 PM 86.9 °F 37.6 °F 17% 29.87 in - SSW 11.5 mph 24.2 mph N/A   Clear
4:55 PM 87.1 °F 37.2 °F 17% 29.86 in - SSW 15.0 mph 20.7 mph N/A   Clear
5:15 PM 86.9 °F 37.4 °F 17% 29.86 in - SSW 11.5 mph - N/A   Clear
5:35 PM 86.5 °F 36.9 °F 17% 29.86 in - SSW 15.0 mph 18.4 mph N/A   Clear
5:55 PM 86.0 °F 37.9 °F 18% 29.85 in - SSW 9.2 mph - N/A   Clear
6:15 PM 85.3 °F 38.1 °F 19% 29.85 in - SSW 11.5 mph 18.4 mph N/A   Clear
6:35 PM 84.6 °F 37.8 °F 19% 29.84 in - SSW 12.7 mph 18.4 mph N/A   Clear
6:55 PM 82.8 °F 40.8 °F 23% 29.84 in - South 8.1 mph - N/A   Clear
7:15 PM 81.9 °F 41.9 °F 24% 29.84 in - South 6.9 mph - N/A   Clear
7:35 PM 79.5 °F 42.8 °F 27% 29.84 in - South 5.8 mph - N/A   Clear
7:55 PM 78.8 °F 42.4 °F 27% 29.85 in - South 4.6 mph - N/A   Clear
8:15 PM 77.7 °F 42.6 °F 29% 29.85 in - South 3.5 mph - N/A   Unknown
8:35 PM 76.3 °F 43.5 °F 31% 29.86 in - Calm Calm - N/A   Clear
8:55 PM 75.7 °F 44.2 °F 32% 29.86 in - South 3.5 mph - N/A   Clear
9:15 PM 74.5 °F 44.6 °F 34% 29.86 in - Calm Calm - N/A   Clear
9:35 PM 73.0 °F 45.7 °F 38% 29.87 in - South 3.5 mph - N/A   Clear
9:55 PM 72.0 °F 46.0 °F 40% 29.87 in - Calm Calm - N/A   Clear
10:15 PM 73.0 °F 44.8 °F 36% 29.87 in - South 3.5 mph - N/A   Clear
10:35 PM 72.7 °F 44.4 °F 36% 29.87 in - SSE 4.6 mph - N/A   Clear
10:55 PM 71.4 °F 44.8 °F 38% 29.87 in - Calm Calm - N/A   Clear
11:10 PM 71.2 °F 44.6 °F 38% 29.86 in - South 3.5 mph - N/A   Clear
11:35 PM 70.0 °F 45.0 °F 41% 29.86 in - South 3.5 mph - N/A   Clear
11:55 PM 68.7 °F 45.5 °F 43% 29.86 in - South 3.5 mph - N/A   Clear